Regional Weather Roundup
Issued by NWS Albany, NY

Home | Current Version | Previous Version | Text Only | Print | Product List | Glossary On
Versions: 1 2 3 4 5 6 7 8 9 10 11 12 13 14 15 16 17 18 19 20 21 22 23 24 25 26 27 28 29 30 31 32 33 34 35 36 37 38 39 40 41 42 43 44 45 46 47 48 49 50
000
ASUS41 KALY 212210
RWRALY

NEW YORK STATE HOURLY WEATHER ROUNDUP
NATIONAL WEATHER SERVICE ALBANY NY
500 PM EST TUE NOV 21 2017

NOTE: "FAIR" INDICATES FEW OR NO CLOUDS BELOW 12,000 FEET WITH NO
SIGNIFICANT WEATHER AND/OR NO OBSTRUCTIONS TO VISIBILITY.

NYZ032-033-038>043-046>054-057>066-NYZ062>081-082-084-212300-
EAST


CITY           SKY/WX    TMP DP  RH WIND       PRES   REMARKS
ALBANY         MOCLDY    54  24  31 S20G31    29.88F
GLENS FALLS    CLEAR     48  26  42 SW5       29.89R
POUGHKEEPSIE   PTCLDY    52  28  39 S5        29.97F
MONTGOMERY     CLEAR     48  29  47 S8        29.96S
WHITE PLAINS   CLEAR     51  32  48 S7        30.01R
ISLIP          CLOUDY    54  41  61 SW14      30.05R
NEW YORK CITY  MOCLDY    56  39  53 S8        30.02S
CENTRAL PARK   PTCLDY    54  29  38 VRB3      30.04S
$$

NYZ005>009-017-018-044>046-055-056-212300-
CENTRAL


CITY           SKY/WX    TMP DP  RH WIND       PRES   REMARKS
FULTON         CLEAR     50  25  37 S8        29.81R
SYRACUSE       MOCLDY    49  27  42 S12       29.82R
ROME           CLOUDY    51  24  34 S8        29.87R
ELMIRA         CLOUDY    53  28  38 SW13      29.86R
BINGHAMTON     CLOUDY    49  22  34 S8        29.88R
MONTICELLO     CLOUDY    47  24  40 S9        29.96S
$$

NYZ026>034-041>043-087-212300-
NORTH


CITY           SKY/WX    TMP DP  RH WIND       PRES   REMARKS
WATERTOWN      CLEAR     50  26  39 SW9       29.77R
FORT DRUM      NOT AVBL
OGDENSBURG     FAIR      45  27  49 SW3       29.76R
MASSENA        PTCLDY    48  26  42 SW8       29.75R
SARANAC LAKE   CLEAR     45  22  40 SW18G24   29.76R
PLATTSBURGH    CLEAR     48  24  39 S10       29.79R
$$

NYZ001>004-010>016-019>021-085-212300-
WEST


CITY           SKY/WX    TMP DP  RH WIND       PRES   REMARKS
NIAGARA FALLS  CLEAR     51  32  48 SW22G29   29.79R
BUFFALO        PTCLDY    50  36  58 SW18      29.79R
DUNKIRK        PTCLDY    51  28  41 SW10G20   29.82R
JAMESTOWN      CLOUDY    48  26  42 SW17      29.83R
WELLSVILLE     CLEAR     52  23  32 SW9       29.85R
ROCHESTER      MOCLDY    52  28  39 SW8       29.80R
PENN YAN       CLEAR     52  24  33 S7        29.83R
$$

             KEY
       WCI = WIND CHILL INDEX
       VSB = VISIBILITY
       HX  = HEAT INDEX
$$



USA.gov is the U.S. government's official web portal to all federal, state and local government web resources and services.